Key West NAF, FL

2:03 PM EDT on September 19, 2017 (GMT -0400)
Key West Naval Air Station

Weather History for KNQX - May, 2014

Change the Weather History Date:

Saturday, May 17, 2014

  Actual Average Record
Temperature  
Mean Temperature 78 °F -  
Max Temperature 84 °F 85 °F 90 °F (1959)
Min Temperature 73 °F 76 °F 67 °F (1951)
Cooling Degree Days 14    
Growing Degree Days 28 (Base 50)    
Moisture  
Dew Point 63 °F    
Average Humidity 61    
Maximum Humidity 69    
Minimum Humidity 51    
Precipitation  
Precipitation 0.00 in - - ()
Sea Level Pressure  
Sea Level Pressure 30.05 in    
Wind  
Wind Speed 18 mph (NE)    
Max Wind Speed 23 mph    
Max Gust Speed 30 mph    
Visibility 10 miles    
Events      
Averages and records for this station are not official NWS values.
T = Trace of Precipitation, MM = Missing Value Source: NWS Daily Summary

Daily Weather History Graph

Daily Weather History Graph

Search for Another Location

Airport or City:

Trip Planner

Search our weather history database for the weather conditions in past years. The results will help you decide how hot, cold, wet, or windy it might be!

Date:

Astronomy

May. 17, 2014 Rise Set
Actual Time 6:42 AM EDT 8:04 PM EDT
Civil Twilight 6:17 AM EDT 8:29 PM EDT
Nautical Twilight 5:48 AM EDT 8:58 PM EDT
Astronomical Twilight 5:17 AM EDT 9:29 PM EDT
Moon 11:06 PM EDT (5/17) 9:23 AM EDT (5/17)
Length of Visible Light 14h 11m
Length of Day
13h 22m
Waning Gibbous, 89% of the Moon is Illuminated
May 17
Waning Gibbous
May 21
Last Quarter
May 28
New
Jun 5
First Quarter
Jun 13
Full

Hourly Weather History & Observations

Time (EDT) Temp. Heat Index Dew Point Humidity Pressure Visibility Wind Dir Wind Speed Gust Speed Precip Events Conditions
12:53 AM 73.0 °F - 62.1 °F 68% 30.06 in 10.0 mi NE 19.6 mph 26.5 mph N/A   Clear
1:53 AM 73.9 °F - 61.0 °F 64% 30.05 in 10.0 mi NNE 16.1 mph 26.5 mph N/A   Clear
2:53 AM 73.9 °F - 60.1 °F 62% 30.03 in 10.0 mi NNE 17.3 mph 23.0 mph N/A   Clear
3:53 AM 73.9 °F - 60.1 °F 62% 30.02 in 10.0 mi NE 16.1 mph 25.3 mph N/A   Clear
4:53 AM 73.9 °F - 61.0 °F 64% 30.03 in 10.0 mi NNE 20.7 mph 26.5 mph N/A   Clear
5:53 AM 73.9 °F - 62.1 °F 66% 30.04 in 10.0 mi NNE 16.1 mph 28.8 mph N/A   Scattered Clouds
6:53 AM 73.0 °F - 61.0 °F 66% 30.06 in 10.0 mi NNE 23.0 mph 28.8 mph N/A   Scattered Clouds
7:53 AM 73.9 °F - 60.1 °F 62% 30.07 in 10.0 mi NNE 21.9 mph 28.8 mph N/A   Scattered Clouds
8:53 AM 75.9 °F - 59.0 °F 56% 30.08 in 10.0 mi NNE 20.7 mph 29.9 mph N/A   Scattered Clouds
9:53 AM 77.0 °F - 60.1 °F 56% 30.08 in 10.0 mi NE 20.7 mph 28.8 mph N/A   Partly Cloudy
10:53 AM 78.1 °F - 61.0 °F 56% 30.09 in 10.0 mi NE 18.4 mph 25.3 mph N/A   Partly Cloudy
11:53 AM 79.0 °F - 61.0 °F 54% 30.08 in 10.0 mi NNE 18.4 mph 25.3 mph N/A   Partly Cloudy
12:53 PM 82.0 °F 83.0 °F 62.1 °F 51% 30.06 in 10.0 mi NE 17.3 mph 27.6 mph N/A   Partly Cloudy
1:53 PM 82.0 °F 83.1 °F 63.0 °F 52% 30.05 in 10.0 mi ENE 15.0 mph - N/A   Partly Cloudy
2:53 PM 84.0 °F 85.4 °F 64.0 °F 51% 30.04 in 10.0 mi NE 15.0 mph 24.2 mph N/A   Scattered Clouds
3:53 PM 82.9 °F 85.0 °F 66.0 °F 56% 30.02 in 10.0 mi East 16.1 mph - N/A   Scattered Clouds
4:53 PM 82.9 °F 85.4 °F 66.9 °F 58% 30.01 in 10.0 mi East 20.7 mph - N/A   Mostly Cloudy
5:53 PM 81.0 °F 83.3 °F 66.9 °F 62% 30.01 in 10.0 mi East 17.3 mph 24.2 mph N/A   Mostly Cloudy
6:53 PM 79.0 °F - 66.9 °F 66% 30.01 in 10.0 mi East 17.3 mph 27.6 mph N/A   Mostly Cloudy
7:53 PM 78.1 °F - 66.0 °F 66% 30.03 in 10.0 mi East 19.6 mph 27.6 mph N/A   Mostly Cloudy
8:53 PM 77.0 °F - 66.0 °F 69% 30.05 in 10.0 mi ENE 19.6 mph 25.3 mph N/A   Mostly Cloudy
9:53 PM 77.0 °F - 64.0 °F 64% 30.06 in 10.0 mi ENE 13.8 mph 27.6 mph N/A   Scattered Clouds
10:53 PM 75.9 °F - 64.0 °F 67% 30.08 in 10.0 mi NE 16.1 mph 23.0 mph N/A   Clear
11:53 PM 75.0 °F - 64.0 °F 69% 30.08 in 10.0 mi ENE 13.8 mph - N/A   Clear